Location: Oberkirch
(48.5323°N, 8.0787°E)
Time: 03:26:40
(UTC+00:00)

AO-85 - Pass Details

Date: 17 March 2026
Orbit: 507 x 686 km, 64.8° (Epoch: 12 April)

Event Time Altitude Azimuth Distance (km) Brightness Sun altitude
Exits shadow 04:26:40 20° 266° (W) 1,275 ? -12.4°
Maximum altitude 04:28:48 33° 318° (NW) 892 ? -12.1°
Drops below altitude 10° 04:32:20 10° 24° (NNE) 1,739 ? -11.5°
Sets 04:34:38 0° 34° (NE) 2,622 ? -11.1°
